{"data":{"norad_id":41920,"epoch":"2026-09-20T03:38:46.199040Z","epoch_age_seconds":45384,"freshness":"FRESH","line1":"1 41920U 17003D   26263.15192360  .00000172  00000+0  54405-4 0  9994","line2":"2 41920  86.3949  48.7022 0002075  93.0062 267.1372 14.34216753506896","mean_motion":14.34216753,"eccentricity":0.0002075,"inclination_deg":86.3949,"raan_deg":48.7022,"arg_perigee_deg":93.0062,"mean_anomaly_deg":267.1372,"bstar":5.4405e-5,"rev_number":50689,"period_min":100.40323381999,"perigee_km":776.18564055517,"apogee_km":779.15530065547,"semimajor_km":7155.8074706053,"source":"CELESTRAK","updated_at":"2026-09-20T09:00:36.320272Z"}}